Time,TemperatureF,DewpointF,PressureIn,WindDirection,WindDirectionDegrees,WindSpeedMPH,WindSpeedGustMPH,Humidity,HourlyPrecipIn,Conditions,Clouds,dailyrainin,SoftwareType,DateUTC
2013-02-24 00:03:00,33.2,33.2,29.81,NE,36,2.0,2.0,100,0.00,,,0.00,Wunderground v.1.15,2013-02-24 05:03:00,
2013-02-24 00:07:00,33.2,33.0,29.81,ENE,60,3.0,-999.0,100,-99.99,,,0.00,weatherlink.com 1.10,2013-02-24 05:07:00,
2013-02-24 00:13:00,33.2,33.2,29.81,ENE,59,1.0,2.0,100,0.00,,,0.00,Wunderground v.1.15,2013-02-24 05:13:00,
2013-02-24 00:18:00,33.2,33.2,29.81,NE,55,2.0,2.0,100,0.00,,,0.00,Wunderground v.1.15,2013-02-24 05:18:00,
2013-02-24 00:22:00,33.2,33.0,29.80,NE,45,0.0,-999.0,100,-99.99,,,0.00,weatherlink.com 1.10,2013-02-24 05:22:00,
2013-02-24 00:28:00,33.1,33.1,29.80,ENE,78,2.0,2.0,100,0.00,,,0.00,Wunderground v.1.15,2013-02-24 05:28:00,
2013-02-24 00:37:00,33.1,33.0,29.80,ESE,117,1.0,-999.0,100,-99.99,,,0.00,weatherlink.com 1.10,2013-02-24 05:37:00,
2013-02-24 00:43:00,33.0,33.0,29.79,ENE,61,1.0,2.0,100,0.00,,,0.00,Wunderground v.1.15,2013-02-24 05:43:00,
2013-02-24 00:48:00,33.0,33.0,29.79,East,94,1.0,2.0,100,0.00,,,0.00,Wunderground v.1.15,2013-02-24 05:48:00,
2013-02-24 00:53:00,32.9,32.9,29.79,ENE,77,1.0,1.0,100,0.00,,,0.00,Wunderground v.1.15,2013-02-24 05:53:00,
2013-02-24 01:03:00,33.0,33.0,29.79,East,82,1.0,1.0,100,0.00,,,0.00,Wunderground v.1.15,2013-02-24 06:03:00,
2013-02-24 01:08:00,33.0,33.0,29.79,East,94,1.0,1.0,100,0.00,,,0.00,Wunderground v.1.15,2013-02-24 06:08:00,
2013-02-24 01:13:00,33.1,33.1,29.79,NNE,30,1.0,1.0,100,0.00,,,0.00,Wunderground v.1.15,2013-02-24 06:13:00,
2013-02-24 01:23:00,33.1,33.1,29.79,NNE,30,0.0,0.0,100,0.00,,,0.00,Wunderground v.1.15,2013-02-24 06:23:00,
2013-02-24 01:28:00,33.1,33.1,29.79,NE,34,1.0,1.0,100,0.00,,,0.00,Wunderground v.1.15,2013-02-24 06:28:00,
2013-02-24 01:33:00,33.0,33.0,29.79,NE,34,1.0,2.0,100,0.00,,,0.00,Wunderground v.1.15,2013-02-24 06:33:00,
2013-02-24 01:43:00,33.1,33.1,29.79,NE,56,1.0,1.0,100,0.00,,,0.00,Wunderground v.1.15,2013-02-24 06:43:00,
2013-02-24 01:53:00,33.1,33.1,29.79,NE,56,1.0,1.0,100,0.00,,,0.00,Wunderground v.1.15,2013-02-24 06:53:00,
2013-02-24 01:58:00,33.1,33.1,29.78,NNE,14,1.0,2.0,100,0.00,,,0.00,Wunderground v.1.15,2013-02-24 06:58:00,
2013-02-24 02:08:00,33.1,33.1,29.79,NNE,24,1.0,1.0,100,0.00,,,0.00,Wunderground v.1.15,2013-02-24 07:08:00,
2013-02-24 02:18:00,33.0,33.0,29.79,NE,49,1.0,3.0,100,0.00,,,0.00,Wunderground v.1.15,2013-02-24 07:18:00,
2013-02-24 02:23:00,33.0,33.0,29.79,NE,47,1.0,1.0,100,0.00,,,0.00,Wunderground v.1.15,2013-02-24 07:23:00,
2013-02-24 02:33:00,33.1,33.1,29.78,NE,37,1.0,2.0,100,0.00,,,0.00,Wunderground v.1.15,2013-02-24 07:33:00,
2013-02-24 02:38:00,33.1,33.1,29.78,North,360,1.0,2.0,100,0.00,,,0.00,Wunderground v.1.15,2013-02-24 07:38:00,
2013-02-24 02:43:00,33.1,33.1,29.78,NNE,17,1.0,1.0,100,0.00,,,0.00,Wunderground v.1.15,2013-02-24 07:43:00,
2013-02-24 02:53:00,33.1,33.1,29.77,ENE,68,1.0,1.0,100,0.00,,,0.00,Wunderground v.1.15,2013-02-24 07:53:00,
2013-02-24 02:58:00,33.1,33.1,29.78,NE,55,1.0,1.0,100,0.00,,,0.00,Wunderground v.1.15,2013-02-24 07:58:00,
2013-02-24 03:08:00,33.1,33.1,29.77,NE,45,1.0,2.0,100,0.00,,,0.00,Wunderground v.1.15,2013-02-24 08:08:00,
2013-02-24 03:13:00,33.2,33.2,29.77,NE,49,1.0,1.0,100,0.00,,,0.00,Wunderground v.1.15,2013-02-24 08:13:00,
2013-02-24 03:18:00,33.2,33.2,29.77,NE,48,1.0,3.0,100,0.00,,,0.00,Wunderground v.1.15,2013-02-24 08:18:00,
2013-02-24 03:24:00,33.2,33.0,29.77,NNW,338,1.0,-999.0,100,-99.99,,,0.00,weatherlink.com 1.10,2013-02-24 08:24:00,
2013-02-24 03:33:00,33.3,33.3,29.76,NNE,32,1.0,1.0,100,0.00,,,0.00,Wunderground v.1.15,2013-02-24 08:33:00,
2013-02-24 03:39:00,33.4,33.0,29.77,NNW,340,0.0,-999.0,100,-99.99,,,0.00,weatherlink.com 1.10,2013-02-24 08:39:00,
2013-02-24 03:48:00,33.4,33.4,29.77,North,355,0.0,1.0,100,0.00,,,0.00,Wunderground v.1.15,2013-02-24 08:48:00,
2013-02-24 03:54:00,33.4,33.0,29.77,NW,321,0.0,-999.0,100,-99.99,,,0.00,weatherlink.com 1.10,2013-02-24 08:54:00,
2013-02-24 04:03:00,33.6,33.6,29.78,NNW,327,1.0,1.0,100,0.00,,,0.00,Wunderground v.1.15,2013-02-24 09:03:00,
2013-02-24 04:08:00,33.6,33.6,29.78,NNW,327,1.0,1.0,100,0.00,,,0.00,Wunderground v.1.15,2013-02-24 09:08:00,
2013-02-24 04:18:00,33.4,33.4,29.77,NNW,327,1.0,1.0,100,0.00,,,0.00,Wunderground v.1.15,2013-02-24 09:18:00,
2013-02-24 04:23:00,33.4,33.4,29.78,NNW,328,0.0,0.0,100,0.00,,,0.01,Wunderground v.1.15,2013-02-24 09:23:00,
2013-02-24 04:33:00,33.4,33.4,29.78,North,355,1.0,1.0,100,0.00,,,0.01,Wunderground v.1.15,2013-02-24 09:33:00,
2013-02-24 04:38:00,33.4,33.4,29.79,NNW,340,1.0,1.0,100,0.00,,,0.01,Wunderground v.1.15,2013-02-24 09:38:00,
2013-02-24 04:48:00,33.4,33.4,29.78,NNW,344,1.0,2.0,100,0.00,,,0.01,Wunderground v.1.15,2013-02-24 09:48:00,
2013-02-24 04:53:00,33.4,33.4,29.78,NNE,19,1.0,1.0,100,0.00,,,0.01,Wunderground v.1.15,2013-02-24 09:53:00,
2013-02-24 05:03:00,33.4,33.4,29.77,NNE,18,0.0,0.0,100,0.00,,,0.01,Wunderground v.1.15,2013-02-24 10:03:00,
2013-02-24 05:08:00,33.3,33.3,29.77,NNE,19,0.0,0.0,100,0.00,,,0.01,Wunderground v.1.15,2013-02-24 10:08:00,
2013-02-24 05:13:00,33.3,33.3,29.77,NNE,19,1.0,1.0,100,0.00,,,0.02,Wunderground v.1.15,2013-02-24 10:13:00,
2013-02-24 05:23:00,33.4,33.4,29.77,NNE,26,1.0,1.0,100,0.00,,,0.02,Wunderground v.1.15,2013-02-24 10:23:00,
2013-02-24 05:28:00,33.3,33.3,29.76,NE,47,1.0,3.0,100,0.00,,,0.02,Wunderground v.1.15,2013-02-24 10:28:00,
2013-02-24 05:38:00,33.3,33.3,29.76,NE,38,2.0,2.0,100,0.00,,,0.02,Wunderground v.1.15,2013-02-24 10:38:00,
2013-02-24 05:43:00,33.3,33.3,29.76,NE,35,2.0,2.0,100,0.00,,,0.02,Wunderground v.1.15,2013-02-24 10:43:00,
2013-02-24 05:53:00,33.4,33.4,29.76,NE,40,2.0,3.0,100,0.00,,,0.02,Wunderground v.1.15,2013-02-24 10:53:00,
2013-02-24 05:58:00,33.4,33.4,29.76,NNE,15,2.0,3.0,100,0.00,,,0.02,Wunderground v.1.15,2013-02-24 10:58:00,
2013-02-24 06:08:00,33.4,33.4,29.75,NNE,32,2.0,5.0,100,0.00,,,0.02,Wunderground v.1.15,2013-02-24 11:08:00,
2013-02-24 06:13:00,33.4,33.4,29.74,NE,35,3.0,3.0,100,0.00,,,0.02,Wunderground v.1.15,2013-02-24 11:13:00,
2013-02-24 06:18:00,33.4,33.4,29.75,NNE,19,3.0,3.0,100,0.00,,,0.02,Wunderground v.1.15,2013-02-24 11:18:00,
2013-02-24 06:24:00,33.4,33.0,29.75,NNE,29,2.0,-999.0,100,-99.99,,,0.02,weatherlink.com 1.10,2013-02-24 11:24:00,
2013-02-24 06:33:00,33.5,33.5,29.75,NNE,33,2.0,2.0,100,0.00,,,0.02,Wunderground v.1.15,2013-02-24 11:33:00,
2013-02-24 06:41:00,33.5,34.0,29.75,NE,48,3.0,-999.0,100,-99.99,,,0.02,weatherlink.com 1.10,2013-02-24 11:41:00,
2013-02-24 06:48:00,33.5,33.5,29.75,NE,44,2.0,2.0,100,0.00,,,0.02,Wunderground v.1.15,2013-02-24 11:48:00,
2013-02-24 06:53:00,33.5,33.5,29.75,NE,41,2.0,3.0,100,0.00,,,0.02,Wunderground v.1.15,2013-02-24 11:53:00,
2013-02-24 07:03:00,33.5,33.5,29.74,ENE,70,3.0,5.0,100,0.00,,,0.02,Wunderground v.1.15,2013-02-24 12:03:00,
2013-02-24 07:11:00,33.5,34.0,29.75,NE,55,0.0,-999.0,100,-99.99,,,0.02,weatherlink.com 1.10,2013-02-24 12:11:00,
2013-02-24 07:18:00,33.6,33.6,29.75,North,355,2.0,2.0,100,0.00,,,0.02,Wunderground v.1.15,2013-02-24 12:18:00,
2013-02-24 07:23:00,33.7,33.7,29.75,NNE,19,2.0,2.0,100,0.00,,,0.02,Wunderground v.1.15,2013-02-24 12:23:00,
2013-02-24 07:33:00,33.8,33.8,29.74,NNE,17,2.0,2.0,100,0.00,,,0.02,Wunderground v.1.15,2013-02-24 12:33:00,
2013-02-24 07:38:00,34.0,34.0,29.74,NNE,30,2.0,2.0,100,0.00,,,0.02,Wunderground v.1.15,2013-02-24 12:38:00,
2013-02-24 07:48:00,34.3,34.3,29.74,NE,51,2.0,3.0,100,0.00,,,0.02,Wunderground v.1.15,2013-02-24 12:48:00,
2013-02-24 07:56:00,34.4,34.0,29.74,NE,49,2.0,-999.0,100,-99.99,,,0.02,weatherlink.com 1.10,2013-02-24 12:56:00,
2013-02-24 08:03:00,34.4,34.4,29.74,NNE,33,2.0,3.0,100,0.00,,,0.02,Wunderground v.1.15,2013-02-24 13:03:00,
2013-02-24 08:08:00,34.4,34.4,29.75,NE,40,2.0,3.0,100,0.00,,,0.02,Wunderground v.1.15,2013-02-24 13:08:00,
2013-02-24 08:18:00,35.1,35.1,29.75,North,360,3.0,3.0,100,0.00,,,0.02,Wunderground v.1.15,2013-02-24 13:18:00,
2013-02-24 08:27:00,35.5,36.0,29.75,NNE,14,0.0,-999.0,100,-99.99,,,0.02,weatherlink.com 1.10,2013-02-24 13:27:00,
2013-02-24 08:33:00,35.7,35.7,29.75,NNE,24,2.0,2.0,100,0.00,,,0.02,Wunderground v.1.15,2013-02-24 13:33:00,
2013-02-24 08:38:00,35.7,35.7,29.75,NW,321,1.0,3.0,100,0.00,,,0.02,Wunderground v.1.15,2013-02-24 13:38:00,
2013-02-24 08:48:00,35.8,35.5,29.75,NNW,348,2.0,3.0,99,0.00,,,0.02,Wunderground v.1.15,2013-02-24 13:48:00,
2013-02-24 08:53:00,35.9,35.6,29.75,NE,34,2.0,2.0,99,0.00,,,0.02,Wunderground v.1.15,2013-02-24 13:53:00,
2013-02-24 09:03:00,36.1,35.6,29.75,NNE,22,2.0,2.0,98,0.00,,,0.02,Wunderground v.1.15,2013-02-24 14:03:00,
2013-02-24 09:08:00,36.3,35.8,29.75,NNE,32,2.0,2.0,98,0.00,,,0.02,Wunderground v.1.15,2013-02-24 14:08:00,
2013-02-24 09:18:00,36.8,36.0,29.74,North,360,3.0,3.0,97,0.00,,,0.02,Wunderground v.1.15,2013-02-24 14:18:00,
2013-02-24 09:27:00,36.8,36.0,29.74,North,350,5.0,-999.0,96,-99.99,,,0.02,weatherlink.com 1.10,2013-02-24 14:27:00,
2013-02-24 09:33:00,37.0,36.0,29.74,NNW,345,2.0,2.0,96,0.00,,,0.02,Wunderground v.1.15,2013-02-24 14:33:00,
2013-02-24 09:42:00,37.0,36.0,29.74,North,355,0.0,-999.0,96,-99.99,,,0.02,weatherlink.com 1.10,2013-02-24 14:42:00,
2013-02-24 09:48:00,37.0,36.2,29.74,NE,40,1.0,2.0,97,0.00,,,0.02,Wunderground v.1.15,2013-02-24 14:48:00,
2013-02-24 09:53:00,37.3,36.5,29.74,North,5,1.0,1.0,97,0.00,,,0.02,Wunderground v.1.15,2013-02-24 14:53:00,
2013-02-24 10:03:00,38.1,37.3,29.74,NE,51,1.0,1.0,97,0.00,,,0.02,Wunderground v.1.15,2013-02-24 15:03:00,
2013-02-24 10:08:00,38.2,36.9,29.75,NE,36,2.0,2.0,95,0.00,,,0.02,Wunderground v.1.15,2013-02-24 15:08:00,
2013-02-24 10:13:00,38.2,36.9,29.75,North,360,2.0,2.0,95,0.00,,,0.02,Wunderground v.1.15,2013-02-24 15:13:00,
2013-02-24 10:18:00,38.0,36.7,29.75,NNW,334,1.0,5.0,95,0.00,,,0.02,Wunderground v.1.15,2013-02-24 15:18:00,
2013-02-24 10:23:00,37.8,36.5,29.75,North,5,1.0,1.0,95,0.00,,,0.02,Wunderground v.1.15,2013-02-24 15:23:00,
2013-02-24 10:33:00,37.9,36.9,29.75,NW,324,1.0,1.0,96,0.00,,,0.02,Wunderground v.1.15,2013-02-24 15:33:00,
2013-02-24 10:38:00,37.9,36.6,29.75,North,360,2.0,2.0,95,0.00,,,0.02,Wunderground v.1.15,2013-02-24 15:38:00,
2013-02-24 10:43:00,38.0,36.7,29.75,NE,53,2.0,3.0,95,0.00,,,0.02,Wunderground v.1.15,2013-02-24 15:43:00,
2013-02-24 10:53:00,38.4,37.4,29.74,NNW,343,1.0,1.0,96,0.00,,,0.02,Wunderground v.1.15,2013-02-24 15:53:00,
2013-02-24 10:58:00,38.7,37.4,29.74,NE,51,1.0,2.0,95,0.00,,,0.02,Wunderground v.1.15,2013-02-24 15:58:00,
2013-02-24 11:08:00,38.6,37.0,29.74,NE,36,1.0,3.0,94,0.00,,,0.02,Wunderground v.1.15,2013-02-24 16:08:00,
2013-02-24 11:18:00,38.4,36.8,29.74,NE,34,2.0,3.0,94,0.00,,,0.02,Wunderground v.1.15,2013-02-24 16:18:00,
2013-02-24 11:23:00,38.4,36.8,29.74,WNW,299,2.0,2.0,94,0.00,,,0.02,Wunderground v.1.15,2013-02-24 16:23:00,
2013-02-24 11:33:00,38.4,36.6,29.74,ENE,57,2.0,4.0,93,0.00,,,0.02,Wunderground v.1.15,2013-02-24 16:33:00,
2013-02-24 11:43:00,38.6,36.8,29.74,WNW,298,2.0,2.0,93,0.00,,,0.02,Wunderground v.1.15,2013-02-24 16:43:00,
2013-02-24 11:48:00,38.7,36.9,29.74,ENE,57,2.0,2.0,93,0.00,,,0.02,Wunderground v.1.15,2013-02-24 16:48:00,
2013-02-24 11:58:00,39.0,36.9,29.74,North,5,2.0,4.0,92,0.00,,,0.02,Wunderground v.1.15,2013-02-24 16:58:00,
2013-02-24 12:03:00,38.7,36.6,29.75,NW,319,2.0,3.0,92,0.00,,,0.02,Wunderground v.1.15,2013-02-24 17:03:00,
2013-02-24 12:08:00,38.3,36.2,29.74,NW,317,2.0,3.0,92,0.00,,,0.02,Wunderground v.1.15,2013-02-24 17:08:00,
2013-02-24 12:18:00,37.8,36.2,29.74,North,10,2.0,2.0,94,0.00,,,0.02,Wunderground v.1.15,2013-02-24 17:18:00,
2013-02-24 12:23:00,37.8,36.2,29.74,North,350,1.0,2.0,94,0.00,,,0.02,Wunderground v.1.15,2013-02-24 17:23:00,
2013-02-24 12:28:00,37.8,36.2,29.74,North,350,2.0,2.0,94,0.00,,,0.02,Wunderground v.1.15,2013-02-24 17:28:00,
2013-02-24 12:38:00,37.9,36.3,29.74,North,355,1.0,4.0,94,0.00,,,0.02,Wunderground v.1.15,2013-02-24 17:38:00,
2013-02-24 12:48:00,38.7,37.1,29.73,NE,48,1.0,1.0,94,0.00,,,0.02,Wunderground v.1.15,2013-02-24 17:48:00,
2013-02-24 12:53:00,38.8,36.7,29.73,NW,319,1.0,2.0,92,0.00,,,0.02,Wunderground v.1.15,2013-02-24 17:53:00,
2013-02-24 12:58:00,38.7,36.6,29.73,NW,314,2.0,2.0,92,0.00,,,0.02,Wunderground v.1.15,2013-02-24 17:58:00,
2013-02-24 13:08:00,38.9,36.8,29.73,North,350,3.0,3.0,92,0.00,,,0.02,Wunderground v.1.15,2013-02-24 18:08:00,
2013-02-24 13:13:00,39.2,36.8,29.73,NNW,334,2.0,2.0,91,0.00,,,0.02,Wunderground v.1.15,2013-02-24 18:13:00,
2013-02-24 13:23:00,39.6,36.9,29.73,WNW,301,1.0,1.0,90,0.00,,,0.02,Wunderground v.1.15,2013-02-24 18:23:00,
2013-02-24 13:28:00,40.0,37.0,29.73,North,355,1.0,4.0,89,0.00,,,0.02,Wunderground v.1.15,2013-02-24 18:28:00,
2013-02-24 13:38:00,40.3,36.7,29.73,NNE,16,4.0,4.0,87,0.00,,,0.02,Wunderground v.1.15,2013-02-24 18:38:00,
2013-02-24 13:48:00,40.1,36.5,29.73,NNW,336,3.0,3.0,87,0.00,,,0.02,Wunderground v.1.15,2013-02-24 18:48:00,
2013-02-24 13:53:00,40.1,36.5,29.73,NNE,13,3.0,3.0,87,0.00,,,0.02,Wunderground v.1.15,2013-02-24 18:53:00,
2013-02-24 13:59:00,40.2,37.0,29.73,NNW,340,3.0,-999.0,87,-99.99,,,0.02,weatherlink.com 1.10,2013-02-24 18:59:00,
2013-02-24 14:08:00,40.7,36.8,29.73,NNE,27,2.0,2.0,86,0.00,,,0.02,Wunderground v.1.15,2013-02-24 19:08:00,
2013-02-24 14:14:00,41.0,37.0,29.73,ENE,64,5.0,-999.0,85,-99.99,,,0.02,weatherlink.com 1.10,2013-02-24 19:14:00,
2013-02-24 14:23:00,41.4,36.6,29.73,North,355,3.0,3.0,83,0.00,,,0.02,Wunderground v.1.15,2013-02-24 19:23:00,
2013-02-24 14:29:00,41.4,36.0,29.73,NW,321,0.0,-999.0,82,-99.99,,,0.02,weatherlink.com 1.10,2013-02-24 19:29:00,
2013-02-24 14:38:00,41.0,37.7,29.74,NNW,346,2.0,3.0,88,0.00,,,0.02,Wunderground v.1.15,2013-02-24 19:38:00,
2013-02-24 14:44:00,40.7,36.0,29.73,North,355,0.0,-999.0,83,-99.99,,,0.02,weatherlink.com 1.10,2013-02-24 19:44:00,
2013-02-24 14:53:00,40.5,36.0,29.74,NNE,13,2.0,2.0,84,0.00,,,0.02,Wunderground v.1.15,2013-02-24 19:53:00,
2013-02-24 14:59:00,40.4,36.0,29.74,NNW,327,0.0,-999.0,84,-99.99,,,0.02,weatherlink.com 1.10,2013-02-24 19:59:00,
2013-02-24 15:08:00,40.3,35.8,29.73,East,86,2.0,3.0,84,0.00,,,0.02,Wunderground v.1.15,2013-02-24 20:08:00,
2013-02-24 15:13:00,40.2,36.1,29.73,North,5,2.0,2.0,85,0.00,,,0.02,Wunderground v.1.15,2013-02-24 20:13:00,
2013-02-24 15:23:00,40.2,36.1,29.73,North,11,1.0,1.0,85,0.00,,,0.02,Wunderground v.1.15,2013-02-24 20:23:00,
2013-02-24 15:28:00,40.2,36.1,29.73,NE,52,1.0,3.0,85,0.00,,,0.02,Wunderground v.1.15,2013-02-24 20:28:00,
2013-02-24 15:38:00,40.0,35.9,29.74,NE,51,1.0,3.0,85,0.00,,,0.02,Wunderground v.1.15,2013-02-24 20:38:00,
2013-02-24 15:43:00,39.9,35.8,29.74,NE,41,2.0,2.0,85,0.00,,,0.02,Wunderground v.1.15,2013-02-24 20:43:00,
2013-02-24 15:53:00,39.8,35.7,29.74,NNE,32,1.0,1.0,85,0.00,,,0.02,Wunderground v.1.15,2013-02-24 20:53:00,
2013-02-24 16:00:00,39.6,36.0,29.74,West,281,3.0,-999.0,86,-99.99,,,0.02,weatherlink.com 1.10,2013-02-24 21:00:00,
2013-02-24 16:08:00,38.9,34.2,29.75,North,5,2.0,6.0,83,0.00,,,0.02,Wunderground v.1.15,2013-02-24 21:08:00,
2013-02-24 16:14:00,38.0,34.0,29.75,NW,323,2.0,-999.0,84,-99.99,,,0.02,weatherlink.com 1.10,2013-02-24 21:14:00,
2013-02-24 16:23:00,37.0,33.2,29.76,North,5,3.0,3.0,86,0.00,,,0.02,Wunderground v.1.15,2013-02-24 21:23:00,
2013-02-24 16:28:00,36.7,33.2,29.77,North,355,3.0,5.0,87,0.00,,,0.02,Wunderground v.1.15,2013-02-24 21:28:00,
2013-02-24 16:44:00,35.4,33.0,29.78,NW,319,1.0,-999.0,89,-99.99,,,0.02,weatherlink.com 1.10,2013-02-24 21:44:00,
2013-02-24 16:59:00,35.8,31.0,29.78,WNW,300,2.0,-999.0,84,-99.99,,,0.02,weatherlink.com 1.10,2013-02-24 21:59:00,
2013-02-24 17:14:00,36.1,30.0,29.79,NNW,346,1.0,-999.0,79,-99.99,,,0.02,weatherlink.com 1.10,2013-02-24 22:14:00,
2013-02-24 17:29:00,36.0,30.0,29.80,NNW,348,2.0,-999.0,79,-99.99,,,0.02,weatherlink.com 1.10,2013-02-24 22:29:00,
2013-02-24 17:44:00,35.7,30.0,29.80,NNW,344,1.0,-999.0,79,-99.99,,,0.02,weatherlink.com 1.10,2013-02-24 22:44:00,
2013-02-24 17:59:00,35.4,30.0,29.81,NNW,333,0.0,-999.0,79,-99.99,,,0.02,weatherlink.com 1.10,2013-02-24 22:59:00,
2013-02-24 18:15:00,35.2,30.0,29.82,North,9,2.0,-999.0,80,-99.99,,,0.02,weatherlink.com 1.10,2013-02-24 23:15:00,
2013-02-24 18:30:00,34.9,30.0,29.83,NNW,331,3.0,-999.0,81,-99.99,,,0.02,weatherlink.com 1.10,2013-02-24 23:30:00,
2013-02-24 18:45:00,34.2,30.0,29.85,NNW,328,3.0,-999.0,83,-99.99,,,0.02,weatherlink.com 1.10,2013-02-24 23:45:00,
2013-02-24 19:00:00,33.6,30.0,29.86,NNW,334,2.0,-999.0,86,-99.99,,,0.02,weatherlink.com 1.10,2013-02-25 00:00:00,
2013-02-24 19:15:00,32.3,30.0,29.85,NW,316,0.0,-999.0,90,-99.99,,,0.02,weatherlink.com 1.10,2013-02-25 00:15:00,
2013-02-24 19:30:00,31.6,29.0,29.86,North,355,3.0,-999.0,91,-99.99,,,0.02,weatherlink.com 1.10,2013-02-25 00:30:00,
2013-02-24 19:45:00,31.1,29.0,29.87,North,355,5.0,-999.0,92,-99.99,,,0.02,weatherlink.com 1.10,2013-02-25 00:45:00,
2013-02-24 20:00:00,30.9,29.0,29.88,North,360,2.0,-999.0,92,-99.99,,,0.02,weatherlink.com 1.10,2013-02-25 01:00:00,
2013-02-24 20:15:00,30.8,29.0,29.88,NNW,329,2.0,-999.0,93,-99.99,,,0.02,weatherlink.com 1.10,2013-02-25 01:15:00,
2013-02-24 20:30:00,30.4,29.0,29.89,NNW,337,3.0,-999.0,93,-99.99,,,0.02,weatherlink.com 1.10,2013-02-25 01:30:00,
2013-02-24 20:45:00,30.1,29.0,29.90,NNW,328,0.0,-999.0,95,-99.99,,,0.02,weatherlink.com 1.10,2013-02-25 01:45:00,
2013-02-24 21:00:00,30.0,29.0,29.90,North,355,3.0,-999.0,95,-99.99,,,0.02,weatherlink.com 1.10,2013-02-25 02:00:00,
2013-02-24 21:15:00,30.0,29.0,29.91,NNE,27,2.0,-999.0,94,-99.99,,,0.02,weatherlink.com 1.10,2013-02-25 02:15:00,
2013-02-24 21:30:00,30.0,29.0,29.91,NNW,331,0.0,-999.0,94,-99.99,,,0.02,weatherlink.com 1.10,2013-02-25 02:30:00,
2013-02-24 21:45:00,29.9,28.0,29.91,NNE,13,0.0,-999.0,93,-99.99,,,0.02,weatherlink.com 1.10,2013-02-25 02:45:00,
2013-02-24 22:00:00,29.7,28.0,29.92,NNE,23,0.0,-999.0,93,-99.99,,,0.02,weatherlink.com 1.10,2013-02-25 03:00:00,
2013-02-24 22:15:00,29.7,28.0,29.91,NW,319,0.0,-999.0,93,-99.99,,,0.02,weatherlink.com 1.10,2013-02-25 03:15:00,
2013-02-24 22:30:00,29.9,28.0,29.91,NNW,327,0.0,-999.0,92,-99.99,,,0.02,weatherlink.com 1.10,2013-02-25 03:30:00,
2013-02-24 22:46:00,30.2,28.0,29.92,NNE,14,1.0,-999.0,90,-99.99,,,0.02,weatherlink.com 1.10,2013-02-25 03:46:00,
2013-02-24 23:00:00,30.3,28.0,29.92,NE,36,3.0,-999.0,90,-99.99,,,0.02,weatherlink.com 1.10,2013-02-25 04:00:00,
2013-02-24 23:15:00,30.3,28.0,29.92,North,355,2.0,-999.0,90,-99.99,,,0.02,weatherlink.com 1.10,2013-02-25 04:15:00,
2013-02-24 23:30:00,30.3,28.0,29.92,NW,319,0.0,-999.0,89,-99.99,,,0.02,weatherlink.com 1.10,2013-02-25 04:30:00,
2013-02-24 23:45:00,30.4,27.0,29.93,NW,313,5.0,-999.0,88,-99.99,,,0.02,weatherlink.com 1.10,2013-02-25 04:45:00,